{"data":{"norad_id":67028,"intl_designator":"2025-293AB","name":"STARLINK-36132","alt_names":[],"object_type":"PAYLOAD","status":"ACTIVE","operator":null,"country":"US","launch_date":"2025-12-10","launch_site_code":"AFWTR","launch_vehicle":null,"mission":null,"orbit_class":"UNKNOWN","rcs_meters":null,"size_class":null,"mass_kg":null,"dimensions":null,"purposes":["comms"],"wikipedia_slug":null,"has_3d_model":false,"image_url":null,"decayed_at":null,"tle_current":{"epoch":"2026-09-20T11:43:00.293376Z","epoch_age_seconds":82545,"freshness":"FRESH","line1":"1 67028U 25293AB  26263.48819784  .00000408  00000+0  41989-4 0  9998","line2":"2 67028  70.0037 323.4214 0003615 268.9989  91.0756 14.98332729 44067","mean_motion":14.98332729,"eccentricity":0.0003615,"inclination_deg":70.0037,"raan_deg":323.4214,"arg_perigee_deg":268.9989,"mean_anomaly_deg":91.0756,"bstar":4.1989e-5,"rev_number":4406,"period_min":96.106824080461,"perigee_km":569.53496007053,"apogee_km":574.55994342915,"semimajor_km":6950.1844517498,"source":"CELESTRAK","updated_at":"2026-09-21T09:00:36.073775Z"}}}